This is the latest recevied weather packets stored in our database for station/object N5PA. If no packets are shown the sender has not sent any weather packets the latest 10 day(s).
| Time | Temp. | Humidity | Pressure | Rain* | Wind** | Luminosity | Snow |
|---|---|---|---|---|---|---|---|
| 1777431905 | 23.33° C | 75% | 1014.1 hPa | 0 mm | - | 998 W/m² | - |
| 1777431605 | 23.33° C | 75% | 1014.3 hPa | 0 mm | - | 998 W/m² | - |
| 1777431306 | 23.33° C | 75% | 1014.2 hPa | 0 mm | - | 997 W/m² | - |
| 1777431006 | 23.33° C | 75% | 1014.4 hPa | 0 mm | - | 997 W/m² | - |
| 1777430706 | 23.33° C | 75% | 1014.7 hPa | 0 mm | - | 998 W/m² | - |
| 1777430406 | 23.89° C | 75% | 1014.7 hPa | 0 mm | - | 995 W/m² | - |
| 1777430105 | 23.89° C | 75% | 1014.7 hPa | 0 mm | - | 995 W/m² | - |
| 1777429806 | 23.89° C | 74% | 1014.9 hPa | 0 mm | - | 997 W/m² | - |
| 1777429506 | 23.89° C | 74% | 1014.8 hPa | 0 mm | - | 997 W/m² | - |
| 1777429205 | 23.89° C | 74% | 1014.8 hPa | 0 mm | - | 997 W/m² | - |
| 1777428907 | 23.89° C | 74% | 1014.8 hPa | 0 mm | - | 997 W/m² | - |
| 1777428605 | 24.44° C | 74% | 1014.9 hPa | 0 mm | - | 991 W/m² | - |
| 1777428306 | 24.44° C | 74% | 1014.8 hPa | 0 mm | - | 997 W/m² | - |
| 1777428006 | 24.44° C | 74% | 1014.9 hPa | 0 mm | - | 993 W/m² | - |
| 1777427705 | 24.44° C | 74% | 1015.1 hPa | 0 mm | - | 995 W/m² | - |
| 1777427405 | 24.44° C | 74% | 1015.1 hPa | 0 mm | - | 993 W/m² | - |
| 1777427106 | 24.44° C | 73% | 1015.2 hPa | 0 mm | - | 993 W/m² | - |
| 1777426807 | 24.44° C | 73% | 1015.2 hPa | 0 mm | - | 993 W/m² | - |
| 1777426506 | 24.44° C | 73% | 1015.2 hPa | 0 mm | - | 993 W/m² | - |
| 1777426206 | 24.44° C | 73% | 1015.3 hPa | 0 mm | - | 993 W/m² | - |
| 1777425905 | 25° C | 73% | 1015.2 hPa | 0 mm | - | 993 W/m² | - |
| 1777425606 | 25° C | 72% | 1015.2 hPa | 0 mm | - | 993 W/m² | - |
| 1777425304 | 25° C | 72% | 1015.2 hPa | 0 mm | - | 993 W/m² | - |
| 1777425006 | 25° C | 72% | 1015.1 hPa | 0 mm | - | 993 W/m² | - |
| 1777424706 | 25° C | 72% | 1014.9 hPa | 0 mm | - | 993 W/m² | - |
* Rain latest hour (hover to see other rain measurements)
** Current wind speed in m/s (hover to see current wind gust speed)